Selinsgrove, PA

9:17 AM EST on December 08, 2019 (GMT -0500)
Penn Valley

Weather History for KSEG - October, 2019

Change the Weather History Date:

Monday, October 7, 2019

  Actual Average (KIPT) Record (KIPT)
Temperature  
Mean Temperature 60 °F -  
Max Temperature 69 °F 64 °F 87 °F (1941)
Min Temperature 54 °F 42 °F 28 °F (1935)
Degree Days  
Heating Degree Days 5    
Growing Degree Days 10 (Base 50)    
Moisture  
Dew Point 58 °F    
Average Humidity 91    
Maximum Humidity 97    
Minimum Humidity 81    
Precipitation  
Precipitation 0.79 in - - ()
Sea Level Pressure  
Sea Level Pressure 30.13 in    
Wind  
Wind Speed 5 mph (North)    
Max Wind Speed 10 mph    
Max Gust Speed -    
Visibility 6 miles    
Events Rain    
Averages and records for this station are not official NWS values.
T = Trace of Precipitation, MM = Missing Value Source: NWS Daily Summary

Daily Weather History Graph

Daily Weather History Graph

Search for Another Location

Airport or City:

Astronomy

Oct. 07, 2019 Rise Set
Actual Time 7:09 AM EDT 6:40 PM EDT
Civil Twilight 6:42 AM EDT 7:07 PM EDT
Nautical Twilight 6:10 AM EDT 7:39 PM EDT
Astronomical Twilight 5:38 AM EDT 8:10 PM EDT
Moon 4:02 PM EDT (10/7) 12:58 AM EDT (10/7)
Length of Visible Light 12h 24m
Length of Day
11h 30m
Waxing Gibbous, 69% of the Moon is Illuminated
Oct 7
Waxing Gibbous
Oct 13
Full
Oct 21
Last Quarter
Oct 27
New
Nov 4
First Quarter

Hourly Weather History & Observations

Time (EDT) Temp. Dew Point Humidity Pressure Visibility Wind Dir Wind Speed Gust Speed Precip Events Conditions
12:48 AM 64.4 °F 60.8 °F 88% 30.14 in 10.0 mi South 6.9 mph - N/A   Overcast
12:53 AM 64.9 °F 61.0 °F 87% 30.13 in 10.0 mi South 8.1 mph - N/A   Overcast
1:27 AM 66.0 °F 61.0 °F 84% 30.13 in 10.0 mi SSW 4.6 mph - N/A   Overcast
1:37 AM 66.0 °F 61.0 °F 84% 30.12 in 10.0 mi North - - N/A   Overcast
1:53 AM 66.0 °F 61.0 °F 84% 30.12 in 10.0 mi South 8.1 mph - N/A   Mostly Cloudy
2:28 AM 66.0 °F 61.0 °F 84% 30.11 in 10.0 mi SW 3.5 mph - N/A   Overcast
2:53 AM 66.0 °F 61.0 °F 84% 30.10 in 10.0 mi Calm Calm - N/A   Overcast
3:53 AM 66.9 °F 61.0 °F 81% 30.08 in 10.0 mi Calm Calm - N/A   Overcast
4:53 AM 66.9 °F 61.0 °F 81% 30.08 in 10.0 mi Variable 5.8 mph - N/A   Overcast
5:53 AM 66.9 °F 61.0 °F 81% 30.08 in 10.0 mi SSW 5.8 mph - N/A   Overcast
6:53 AM 66.9 °F 61.0 °F 81% 30.08 in 10.0 mi South 8.1 mph - 0.00 in   Overcast
7:38 AM 64.9 °F 62.1 °F 90% 30.09 in 2.5 mi South 6.9 mph - 0.09 in Rain Rain
7:46 AM 64.9 °F 62.1 °F 90% 30.09 in 4.0 mi SSW 5.8 mph - 0.10 in Rain Light Rain
7:53 AM 64.9 °F 62.1 °F 90% 30.09 in 7.0 mi SSW 4.6 mph - 0.10 in Rain Light Rain
8:53 AM 64.9 °F 63.0 °F 93% 30.11 in 6.0 mi Calm Calm - 0.01 in Rain Light Rain
9:53 AM 64.9 °F 63.0 °F 93% 30.11 in 9.0 mi Calm Calm - 0.00 in   Overcast
10:53 AM 64.9 °F 63.0 °F 93% 30.12 in 7.0 mi Calm Calm - 0.02 in Rain Light Rain
11:18 AM 60.1 °F 57.9 °F 93% 30.12 in 2.5 mi North 10.4 mph - 0.05 in Rain Rain
11:53 AM 60.1 °F 59.0 °F 96% 30.12 in 2.5 mi NNE 4.6 mph - 0.13 in Rain Light Rain
11:56 AM 60.1 °F 59.0 °F 96% 30.13 in 3.0 mi North 4.6 mph - 0.00 in Rain Light Rain
12:03 PM 60.1 °F 59.0 °F 96% 30.13 in 4.0 mi NNW 4.6 mph - 0.00 in Rain Light Rain
12:51 PM 60.8 °F 57.2 °F 88% 30.14 in 2.0 mi North 5.8 mph - 0.08 in Rain Rain
12:53 PM 60.1 °F 57.9 °F 93% 30.14 in 2.0 mi North 4.6 mph - 0.09 in Rain Rain
1:05 PM 60.1 °F 59.0 °F 96% 30.13 in 5.0 mi North 3.5 mph - 0.00 in Rain Light Rain
1:53 PM 60.1 °F 57.9 °F 93% 30.12 in 2.5 mi North 5.8 mph - 0.01 in Rain Light Rain
2:11 PM 60.1 °F 57.9 °F 93% 30.12 in 3.0 mi NNW 4.6 mph - 0.01 in Rain Light Rain
2:21 PM 59.0 °F 57.9 °F 96% 30.13 in 2.5 mi NNW 6.9 mph - 0.02 in Rain Light Rain
2:42 PM 60.1 °F 57.9 °F 93% 30.13 in 3.0 mi North 4.6 mph - 0.03 in Rain Light Rain
2:51 PM 60.8 °F 57.2 °F 88% 30.13 in 2.5 mi North 3.5 mph - 0.04 in Rain Light Rain
2:53 PM 60.1 °F 57.9 °F 93% 30.13 in 2.0 mi NNE 3.5 mph - 0.05 in Rain Light Rain
2:56 PM 60.1 °F 57.9 °F 93% 30.13 in 1.8 mi NNE 3.5 mph - 0.00 in Rain Light Rain
3:05 PM 59.0 °F 57.0 °F 93% 30.13 in 3.0 mi North 3.5 mph - 0.00 in Rain Light Rain
3:13 PM 60.1 °F 57.9 °F 93% 30.13 in 6.0 mi North 4.6 mph - 0.00 in Rain Light Rain
3:35 PM 59.0 °F 57.9 °F 96% 30.14 in 7.0 mi NNW 5.8 mph - 0.01 in Rain Light Rain
3:53 PM 59.0 °F 57.9 °F 96% 30.14 in 3.0 mi NNE 5.8 mph - 0.02 in Rain Light Rain
4:24 PM 59.0 °F 57.9 °F 96% 30.15 in 4.0 mi NNE 3.5 mph - 0.02 in Rain Light Rain
4:53 PM 59.0 °F 57.0 °F 93% 30.15 in 7.0 mi NNW 5.8 mph - 0.05 in Rain Light Rain
5:09 PM 59.0 °F 57.0 °F 93% 30.15 in 10.0 mi NNE 5.8 mph - 0.00 in   Overcast
5:53 PM 57.9 °F 55.0 °F 90% 30.17 in 5.0 mi North 5.8 mph - 0.03 in Rain Light Rain
6:12 PM 55.9 °F 54.0 °F 93% 30.16 in 2.0 mi NNE 9.2 mph - 0.04 in Rain Rain
6:24 PM 55.9 °F 54.0 °F 93% 30.16 in 5.0 mi NE 6.9 mph - 0.05 in Rain Light Rain
6:53 PM 55.9 °F 54.0 °F 93% 30.16 in 10.0 mi NNE 3.5 mph - 0.07 in Rain Light Rain
7:53 PM 55.0 °F 53.1 °F 93% 30.18 in 7.0 mi North 4.6 mph - 0.07 in Rain Light Rain
8:53 PM 54.0 °F 53.1 °F 97% 30.19 in 10.0 mi Calm Calm - 0.03 in Rain Light Rain
9:53 PM 54.0 °F 53.1 °F 97% 30.22 in 7.0 mi NNW 5.8 mph - 0.02 in Rain Light Rain
10:53 PM 54.0 °F 53.1 °F 97% 30.23 in 10.0 mi Calm Calm - 0.05 in Rain Light Rain
11:53 PM 54.0 °F 53.1 °F 97% 30.24 in 5.0 mi Calm Calm - 0.04 in Rain Light Rain